Flag for Mexico Weather past 2 weeks in Mexico City, Federal District, Mexico

Now
66 °F

Partly sunny.


Feels Like: 66 °F
Forecast: N/A
Wind: 3 mph from Northeast

Location: Mexico City / Licenci

Current Time: Jan 26, 2015 at 2:38:56 PM

Latest Report: Jan 26, 2015 at 1:45 PM


Visibility: 7 mi

Pressure: 30.35 "Hg

Humidity: 37%

Dew point: 39 °F

Location of Mexico CityLocation

Historic Weather in Mexico City — Graph

°F

Mexico City temperature yesterday

Maximum temperature yesterday: 68 °F (at 4:44 PM)
Minimum temperature yesterday: 46 °F (at 7:21 AM)
Average temperature yesterday: 55 °F

Past Weeks' High & Low Weather Summary

 TemperatureHumidityPressure
High73 °F (Jan 21, 1:45 PM)87% (Jan 14, 2:52 AM)30.50 "Hg (Jan 14, 2:52 AM)
Low43 °F (Jan 12, 5:47 AM)20% (Jan 13, 3:46 PM)29.67 "Hg (Jan 21, 2:45 PM)
Average58 °F54%30.22 "Hg
* Reported Jan 11 1:43 PM — Jan 26 12:45 PM, Mexico City, Weather by CustomWeather, © 2014

Note: Actual official high and low records may vary slightly from our data, if they occured in-between our weather recording intervals... More about our weather records

Advertising

Mexico City weather history for previous 24 hours

 ConditionsComfort  
Time TempWeatherWind HumidityBarometerVisibility
12:45 PM
Jan 26
64 °FBroken clouds.5 mph40%30.39 "Hg8 mi
11:45 AM63 °FPartly sunny.8 mph42%30.00 "Hg8 mi
10:52 AM61 °FBroken clouds.7 mph45%30.45 "Hg8 mi
9:46 AM57 °FPartly sunny.3 mph51%30.46 "Hg8 mi
9:22 AM55 °FPartly sunny.2 mph55%30.46 "Hg8 mi
8:47 AM50 °FPartly sunny.6 mph67%30.09 "Hg8 mi
8:20 AM50 °FScattered clouds.10 mph67%30.44 "Hg8 mi
7:46 AM50 °FPartly sunny.3 mph67%30.43 "Hg8 mi
7:20 AM50 °FBroken clouds.5 mph71%30.43 "Hg8 mi
6:47 AM50 °FMostly cloudy.7 mph67%30.42 "Hg8 mi
6:22 AM50 °FMostly cloudy.9 mph67%30.42 "Hg10 mi
5:47 AM50 °FPartly cloudy.6 mph71%29.96 "Hg12 mi
4:48 AM52 °FPassing clouds.5 mph67%30.40 "Hg12 mi
3:45 AM54 °FPassing clouds.8 mph63%30.39 "Hg12 mi
2:51 AM55 °FMostly cloudy.6 mph59%29.96 "Hg14 mi
1:54 AM55 °FOvercast.6 mph55%30.40 "Hg14 mi
12:53 AM57 °FOvercast.8 mph51%30.39 "Hg14 mi
11:45 PM
Jan 25
59 °FMostly cloudy.7 mph48%29.95 "Hg14 mi
10:45 PM59 °FPartly cloudy.6 mph48%30.38 "Hg12 mi
9:47 PM59 °FPassing clouds.7 mph48%30.37 "Hg12 mi
8:45 PM61 °FPartly cloudy.13 mph48%29.96 "Hg10 mi
4:44 PM68 °FMostly cloudy.7 mph30%30.26 "Hg7 mi
Weather by CustomWeather, © 2014

See weather overviewHow to use our weather pages